DW4212 La Cabrera ES current weather conditions

sailwx.info

Wind from 196

Air temperature 23.9° C
Dewpoint 11.9° C

Last reported at 2016-Jul-24 08:49 UTC.
Time now 2016-Jul-24 10:40 UTC

Location: N 40°53' W 003°35'.
View on Google Maps.

See reports from other nearby stations

  
Tides and Currents Weather Stations Pressure Air Temp Water Temp Dewpoint Dewpoint Depression Visibility Wind Speed Wind Dir Waves Ship Positions
date/time (UTC)wind fromknots sea level pressurealtimeterstation pressurevisibilityair tempwater tempwave heightnotes
2016-Jul-24 08:49 196 23.9
2016-Jul-24 08:39 202 23.3
2016-Jul-24 08:29 360 22.8
2016-Jul-24 08:19 347 22.2
2016-Jul-24 07:59 342 0 gusting 3 21.1
2016-Jul-24 07:49 341 0 gusting 4 20.6
2016-Jul-24 07:29 340 19.4
2016-Jul-24 07:19 340 18.9
2016-Jul-24 07:09 340 17.8
2016-Jul-24 06:59 340 0 gusting 3 17.2
2016-Jul-24 06:49 338 16.7
2016-Jul-24 06:39 336 0 gusting 2 16.7
2016-Jul-24 06:29 336 16.1
2016-Jul-24 06:19 336 15.6
2016-Jul-24 06:09 334 15.0
2016-Jul-24 05:59 334 1 gusting 2 14.4
2016-Jul-24 05:49 334 0 gusting 3 13.9
2016-Jul-24 05:39 334 0 gusting 2 13.9
2016-Jul-24 05:29 334 13.9
2016-Jul-24 05:19 334 13.9
2016-Jul-24 05:09 334 13.9
2016-Jul-24 04:59 334 13.9
2016-Jul-24 04:49 334 13.9
2016-Jul-24 04:39 334 14.4
2016-Jul-24 04:29 334 14.4
2016-Jul-24 04:19 334 14.4
2016-Jul-24 04:09 334 14.4
2016-Jul-24 03:59 334 14.4
2016-Jul-24 03:49 334 14.4
2016-Jul-24 03:39 334 14.4
2016-Jul-24 03:29 334 15.0
2016-Jul-24 03:19 334 15.0
2016-Jul-24 03:09 334 15.0
2016-Jul-24 02:59 334 15.0
2016-Jul-24 02:49 334 15.6
2016-Jul-24 02:29 334 16.1
2016-Jul-24 02:19 334 16.1
2016-Jul-24 02:09 334 16.1
2016-Jul-24 01:59 334 16.1
2016-Jul-24 01:39 334 16.1
2016-Jul-24 01:29 334 16.7
2016-Jul-24 01:19 334 16.7
2016-Jul-24 01:09 334 16.7
2016-Jul-24 00:59 334 17.2
2016-Jul-24 00:49 334 17.8
2016-Jul-24 00:39 334 18.3
2016-Jul-24 00:29 334 18.3
2016-Jul-24 00:19 334 18.9
2016-Jul-24 00:09 333 18.9
2016-Jul-23 23:59 333 18.9
2016-Jul-23 23:49 333 18.9
2016-Jul-23 23:39 335 1 gusting 4 18.9
2016-Jul-23 23:29 337 0 gusting 3 18.9
2016-Jul-23 23:19 325 0 gusting 4 19.4
2016-Jul-23 23:09 323 2 gusting 6 19.4
2016-Jul-23 22:59 348 3 gusting 6 19.4
2016-Jul-23 22:49 329 0 gusting 2 19.4
2016-Jul-23 22:39 329 0 gusting 3 19.4
2016-Jul-23 22:29 329 19.4
2016-Jul-23 22:19 329 20.0
2016-Jul-23 22:09 329 284 gusting 284 20.0
2016-Jul-23 21:59 329 20.6
2016-Jul-23 21:49 329 20.6
2016-Jul-23 21:39 329 20.6
2016-Jul-23 21:19 329 21.1
2016-Jul-23 21:09 329 1 gusting 4 21.1
2016-Jul-23 20:59 327 21.7
2016-Jul-23 20:49 327 21.7
2016-Jul-23 20:39 336 0 gusting 6 22.2
2016-Jul-23 20:29 321 1 gusting 6 22.2
2016-Jul-23 20:19 327 1 gusting 4 22.8
2016-Jul-23 20:09 337 0 gusting 4 22.8
2016-Jul-23 19:59 330 23.3
2016-Jul-23 19:49 318 23.9
2016-Jul-23 19:39 332 1 gusting 6 24.4
2016-Jul-23 19:29 023 24.4
2016-Jul-23 19:09 023 25.6
2016-Jul-23 18:59 010 0 gusting 3 26.1
2016-Jul-23 18:49 005 27.2
2016-Jul-23 18:39 350 27.2
2016-Jul-23 18:29 331 1 gusting 6 27.8
2016-Jul-23 18:19 325 1 gusting 4 27.8
2016-Jul-23 18:10 336 1 gusting 4 27.8
2016-Jul-23 17:49 327 0 gusting 7 28.3
2016-Jul-23 17:39 327 28.3
2016-Jul-23 17:29 340 0 gusting 6 28.3
2016-Jul-23 17:19 317 2 gusting 6 28.9
2016-Jul-23 17:09 305 2 gusting 5 28.9
2016-Jul-23 16:59 319 0 gusting 6 28.9
2016-Jul-23 16:49 348 3 gusting 8 28.9
2016-Jul-23 16:39 313 2 gusting 6 28.9
2016-Jul-23 16:29 355 1 gusting 6 28.9
2016-Jul-23 16:19 311 4 gusting 8 28.9
2016-Jul-23 16:09 296 1 gusting 6 28.3
2016-Jul-23 15:59 321 4 gusting 9 28.3
2016-Jul-23 15:49 315 0 gusting 6 28.3
2016-Jul-23 15:39 328 2 gusting 7 28.3
2016-Jul-23 15:29 078 27.8
2016-Jul-23 15:19 109 27.8
2016-Jul-23 15:09 055 27.8
2016-Jul-23 14:59 055 0 gusting 6 27.2
2016-Jul-23 14:49 075 26.7
2016-Jul-23 14:39 065 0 gusting 5 26.1
2016-Jul-23 14:30 105 0 gusting 3 27.2
2016-Jul-23 14:19 119 27.2
2016-Jul-23 14:09 053 27.2
2016-Jul-23 13:59 319 0 gusting 7 27.8
2016-Jul-23 13:49 124 27.2
2016-Jul-23 13:39 079 0 gusting 4 27.8
2016-Jul-23 13:29 132 27.2
2016-Jul-23 13:19 059 0 gusting 5 27.2
2016-Jul-23 13:09 344 0 gusting 3 26.7
2016-Jul-23 12:59 350 26.7
2016-Jul-23 12:49 181 26.1
2016-Jul-23 12:39 111 0 gusting 3 26.1
2016-Jul-23 12:29 097 0 gusting 5 26.1
2016-Jul-23 12:09 082 25.6
2016-Jul-23 11:59 083 25.6
2016-Jul-23 11:49 106 25.0
2016-Jul-23 11:39 110 25.6
2016-Jul-23 11:29 061 0 gusting 5 25.0
2016-Jul-23 11:19 182 0 gusting 5 25.0
2016-Jul-23 11:09 055 0 gusting 4 25.0
2016-Jul-23 10:59 158 0 gusting 4 25.6
2016-Jul-23 10:39 055 24.4
2016-Jul-23 10:29 060 0 gusting 6 24.4
2016-Jul-23 10:19 032 0 gusting 3 23.9
2016-Jul-23 10:09 053 23.3
2016-Jul-23 09:59 066 22.8
2016-Jul-23 09:49 125 0 gusting 4 22.8
2016-Jul-23 09:39 086 0 gusting 4 22.2
2016-Jul-23 09:29 150 22.2
2016-Jul-23 09:19 129 22.2
2016-Jul-23 09:09 114 22.2
2016-Jul-23 08:59 137 22.2
2016-Jul-23 08:49 047 21.7
2016-Jul-23 08:39 043 21.7
2016-Jul-23 08:29 040 21.1
2016-Jul-23 08:19 040 21.1
2016-Jul-23 08:09 040 0 gusting 4 20.6
2016-Jul-23 07:59 039 19.4
2016-Jul-23 07:49 039 19.4
2016-Jul-23 07:39 039 0 gusting 3 18.9
2016-Jul-23 07:29 039 18.9
2016-Jul-23 07:19 039 18.3
2016-Jul-23 07:09 039 17.2
2016-Jul-23 06:59 039 16.7
2016-Jul-23 06:49 039 15.6
2016-Jul-23 06:39 039 15.6
2016-Jul-23 06:29 039 15.0
2016-Jul-23 06:19 039 15.0
2016-Jul-23 06:09 039 14.4
2016-Jul-23 05:59 040 0 gusting 3 14.4
2016-Jul-23 05:49 049 14.4
2016-Jul-23 05:39 050 13.9
2016-Jul-23 05:29 050 13.3
2016-Jul-23 05:19 051 0 gusting 2 12.8
2016-Jul-23 05:09 055 12.8
2016-Jul-23 04:59 055 12.8
2016-Jul-23 04:39 063 12.8
2016-Jul-23 04:29 063 12.8
2016-Jul-23 04:19 063 13.3
2016-Jul-23 04:09 063 13.3
2016-Jul-23 03:59 063 13.3
2016-Jul-23 03:49 063 13.3
2016-Jul-23 03:39 063 13.3
2016-Jul-23 03:29 063 13.9
2016-Jul-23 03:19 063 13.9
2016-Jul-23 03:09 063 13.9
2016-Jul-23 02:59 063 13.9
2016-Jul-23 02:49 063 13.9
2016-Jul-23 02:39 063 14.4
2016-Jul-23 02:29 063 14.4
2016-Jul-23 02:19 063 14.4
2016-Jul-23 02:09 063 15.0
2016-Jul-23 01:49 063 15.0
2016-Jul-23 01:39 063 0 gusting 3 15.0
2016-Jul-23 01:29 035 15.6
2016-Jul-23 01:19 033 15.6
2016-Jul-23 01:09 033 16.1
2016-Jul-23 00:59 346 0 gusting 6 16.1
2016-Jul-23 00:49 348 1 gusting 4 16.7
2016-Jul-23 00:39 013 0 gusting 7 16.7
2016-Jul-23 00:29 336 3 gusting 8 17.2
2016-Jul-23 00:19 306 3 gusting 7 17.2
2016-Jul-23 00:09 336 3 gusting 9 17.2
2016-Jul-22 23:59 345 2 gusting 9 17.2
2016-Jul-22 23:49 310 4 gusting 7 17.2
2016-Jul-22 23:39 010 4 gusting 7 17.2
2016-Jul-22 23:29 341 4 gusting 9 17.2
2016-Jul-22 23:19 355 2 gusting 6 17.2
2016-Jul-22 23:09 360 1 gusting 11 17.2
2016-Jul-22 22:59 013 1 gusting 9 17.2
2016-Jul-22 22:49 005 2 gusting 8 17.8
2016-Jul-22 22:39 344 2 gusting 6 17.8
2016-Jul-22 22:29 355 2 gusting 7 17.8
2016-Jul-22 22:19 360 3 gusting 8 17.8
2016-Jul-22 22:09 022 1 gusting 9 18.3
2016-Jul-22 21:59 022 0 gusting 6 18.3
2016-Jul-22 21:49 028 2 gusting 8 18.3
2016-Jul-22 21:39 355 2 gusting 6 18.9
2016-Jul-22 21:29 060 2 gusting 6 18.9
2016-Jul-22 21:19 057 1 gusting 8 19.4
2016-Jul-22 21:09 059 1 gusting 10 19.4
2016-Jul-22 20:59 355 0 gusting 8 19.4
2016-Jul-22 20:49 355 1 gusting 9 19.4
2016-Jul-22 20:39 026 3 gusting 8 20.0
2016-Jul-22 20:29 005 1 gusting 13 20.0
2016-Jul-22 20:19 342 5 gusting 19 20.6
2016-Jul-22 20:09 009 2 gusting 10 20.6
2016-Jul-22 19:59 319 6 gusting 14 20.6
2016-Jul-22 19:49 011 4 gusting 16 21.1
2016-Jul-22 19:39 345 6 gusting 15 21.7
2016-Jul-22 19:29 336 6 gusting 18 21.7
2016-Jul-22 19:19 355 5 gusting 13 22.2
2016-Jul-22 19:09 313 8 gusting 14 22.8
2016-Jul-22 18:59 315 6 gusting 16 23.3
2016-Jul-22 18:49 317 5 gusting 15 23.9
2016-Jul-22 18:39 355 6 gusting 13 23.9
2016-Jul-22 18:29 323 7 gusting 16 24.4
2016-Jul-22 18:19 328 7 gusting 20 24.4
2016-Jul-22 18:09 349 6 gusting 13 25.0
2016-Jul-22 17:59 355 5 gusting 11 25.0
2016-Jul-22 17:49 340 6 gusting 13 25.6
2016-Jul-22 17:39 338 5 gusting 11 26.1
2016-Jul-22 17:19 355 5 gusting 12 26.1
2016-Jul-22 17:09 005 6 gusting 13 26.1
2016-Jul-22 16:59 349 4 gusting 15 26.1
2016-Jul-22 16:49 344 6 gusting 13 26.7
2016-Jul-22 16:39 012 4 gusting 11 27.2
2016-Jul-22 16:29 324 3 gusting 16 27.2
2016-Jul-22 16:19 341 7 gusting 13 27.2
2016-Jul-22 16:09 337 6 gusting 14 27.2
2016-Jul-22 15:59 005 4 gusting 10 27.2
2016-Jul-22 15:49 327 6 gusting 11 27.8
2016-Jul-22 15:39 360 5 gusting 13 27.8
2016-Jul-22 15:29 355 5 gusting 9 27.8
2016-Jul-22 15:19 350 6 gusting 10 27.2
2016-Jul-22 14:59 338 2 gusting 12 27.8
2016-Jul-22 14:49 017 2 gusting 9 27.8
2016-Jul-22 14:39 333 3 gusting 9 27.8
2016-Jul-22 14:29 317 4 gusting 10 27.8
2016-Jul-22 14:19 018 5 gusting 10 27.2
2016-Jul-22 14:09 011 3 gusting 11 27.2
2016-Jul-22 13:59 010 6 gusting 10 27.2
2016-Jul-22 13:49 355 4 gusting 12 27.8
2016-Jul-22 13:39 355 4 gusting 9 27.8
2016-Jul-22 13:29 044 4 gusting 10 27.2
2016-Jul-22 13:19 355 4 gusting 10 27.8
2016-Jul-22 13:09 335 3 gusting 12 27.8
2016-Jul-22 12:59 005 3 gusting 12 27.2
2016-Jul-22 12:49 308 4 gusting 10 27.2
2016-Jul-22 12:39 329 5 gusting 10 27.2
2016-Jul-22 12:29 009 2 gusting 12 27.2
2016-Jul-22 12:19 015 5 gusting 9 27.2
2016-Jul-22 12:09 341 4 gusting 9 26.7
2016-Jul-22 11:59 010 6 gusting 12 26.1
2016-Jul-22 11:49 333 5 gusting 13 26.1
2016-Jul-22 11:39 355 5 gusting 13 26.7
2016-Jul-22 11:29 013 2 gusting 11 26.7
2016-Jul-22 11:19 322 1 gusting 9 26.7
2016-Jul-22 11:09 073 2 gusting 7 26.1
2016-Jul-22 10:59 066 3 gusting 10 26.1
2016-Jul-22 10:49 038 3 gusting 10 25.6
2016-Jul-22 10:39 360 3 gusting 12 25.0
2016-Jul-22 10:29 044 2 gusting 8 25.0
2016-Jul-22 10:19 045 4 gusting 9 25.0